Regional Weather Roundup
Issued by NWS

Home | Current Version | Previous Version | Text Only | Print | Product List | Glossary On
Versions: 1 2 3 4 5 6 7 8 9 10 11 12 13 14 15 16 17 18 19 20 21 22 23 24 25 26 27 28 29 30 31 32 33 34 35 36 37 38 39 40 41 42 43 44 45 46 47 48 49 50
000
ASUS43 KIND 292159
RWRIN

WEATHER ROUNDUP FOR INDIANA
NATIONAL WEATHER SERVICE INDIANAPOLIS IN
600 PM EDT SAT APR 29 2017

NOTE: "FAIR" INDICATES FEW OR NO CLOUDS BELOW 12,000 FEET WITH NO
SIGNIFICANT WEATHER AND/OR OBSTRUCTIONS TO VISIBILITY.

* - STATION DOES NOT REPORT WEATHER SUCH AS PRECIPITATION OR FOG.

+ - STATION NOT QUALITY CONTROLLED BY THE NATIONAL WEATHER SERVICE.
    USE DATA WITH CAUTION...ESPECIALLY DEWPOINT AND RELATIVE
    HUMIDITY OBSERVATIONS.

INZ001>003-010>013-019-020-292300-
NORTHWEST INDIANA

CITY           SKY/WX    TMP DP  RH WIND       PRES   REMARKS
GARY /AIRPORT/ LGT RAIN  43  41  93 N15G30    30.10F
MONTICELLO +   CLOUDY    53  51  94 NE14G22   30.01S FOG
RENSSELAER +   CLOUDY    52  48  87 NE21      30.03F

$$

LMZ046-743>745-292300-
SOUTHERN LAKE MICHIGAN

STATION/POSITION TIME  TEMP    WIND        PRES    WAVE
                       AIR SEA DIR/SP/G            HT
                 (UTC) (F)     (DEG/KT/KT) (MB)    (FT)
BURNS HARBOR     2140   43      40/ 19/ 22 1019.3S
MICHIGAN CITY    2130   44      20/ 18/ 20   N/A
5NW MICH CITY    2150   42 47                N/A     7

$$

INZ004-005-014>016-021>024-292300-
NORTH CENTRAL INDIANA

CITY           SKY/WX    TMP DP  RH WIND       PRES   REMARKS
ELKHART        CLOUDY    52  45  76 E18       30.10F
GOSHEN         CLOUDY    51  44  77 E15       30.10F
SOUTH BEND     CLOUDY    51  46  83 E9        30.10F

$$

INZ006>009-017-018-025>027-292300-
NORTHEAST INDIANA

CITY           SKY/WX    TMP DP  RH WIND       PRES   REMARKS
ANGOLA *+      CLOUDY    48  36  61 E14       30.12F
FORT WAYNE     CLOUDY    50  45  83 E18G26    30.10S
KENDALLVILLE + CLOUDY    48  45  88 E13       30.11F

$$

INZ028-029-035-036-043>045-051>053-292300-
WEST CENTRAL INDIANA

CITY           SKY/WX    TMP DP  RH WIND       PRES   REMARKS
CRAWFORDSVL +  CLOUDY    64  64 100 NE12      29.93F
GREENCASTLE +  CLOUDY    72  64  78 E7        29.91F
LAFAYETTE      CLOUDY    55  55 100 E15G24    29.98F FOG
TERRE HAUTE    CLOUDY    75  65  70 SE10      29.86F

$$

INZ030>032-037>040-046>048-054>057-064-065-292300-
CENTRAL INDIANA

CITY           SKY/WX    TMP DP  RH WIND       PRES   REMARKS
CP ATTERBURY + MOSUNNY   77  63  61 SE10      29.95F
INDIANAPOLIS   CLOUDY    74  63  68 E12       29.93F
-EAGLE CREEK   CLOUDY    70  63  78 E10       29.93F
KOKOMO +       CLOUDY    52  51  97 E20       30.02F FOG
SHELBYVILLE    CLOUDY    79  63  57 SE12      29.95F

$$

INZ033-034-041-042-049-050-058-059-292300-
EAST CENTRAL INDIANA

CITY           SKY/WX    TMP DP  RH WIND       PRES   REMARKS
MUNCIE         CLOUDY    54  52  93 E14       30.04F FOG
RICHMOND +     CLOUDY    72  63  73 SE10      30.01F

$$

INZ060-061-067>069-081>083-085>088-292300-
SOUTHWEST INDIANA

CITY           SKY/WX    TMP DP  RH WIND       PRES   REMARKS
EVANSVILLE       N/A     84  67  56 MISG      29.86F

$$

INZ062-063-066-070>080-084-089>092-292300-
SOUTH CENTRAL AND SOUTHEAST INDIANA

CITY           SKY/WX    TMP DP  RH WIND       PRES   REMARKS
BLOOMINGTON    MOSUNNY   78  62  57 SE10G21   29.91F
MADISON *+     SUNNY     81  63  54 E7        29.98F
SEYMOUR +      SUNNY     82  64  54 SE12      29.94F

$$





USA.gov is the U.S. government's official web portal to all federal, state and local government web resources and services.